CW8504 Weather Reports


time (UTC)temp
C
wind
direction
speed
KPH
gust
KPH
rain 1hr
cm
rain 24hr
cm
rain mn
cm
humidity
%
barometer
mb
20260503202904 21 224 1.6 19.3 0.00 0.00 0.00 4 1014.8
20260503202404 21 231 8.0 20.9 0.00 0.00 0.00 4 1015.0
20260503201904 21 224 6.4 19.3 0.00 0.00 0.00 6 1015.0
20260503201403 21 216 1.6 16.1 0.00 0.00 0.00 5 1015.0
20260503200907 20 200 8.0 19.3 0.00 0.00 0.00 6 1015.1
20260503200404 20 218 11.3 19.3 0.00 0.00 0.00 4 1015.1
20260503195904 20 199 12.9 25.7 0.00 0.00 0.00 6 1015.1
20260503195404 20 217 11.3 20.9 0.00 0.00 0.00 6 1015.2
20260503194904 20 221 9.7 22.5 0.00 0.00 0.00 6 1015.2
20260503193404 20 204 4.8 19.3 0.00 0.00 0.00 8 1015.3
20260503192904 19 255 3.2 9.7 0.00 0.00 0.00 11 1015.3
20260503192404 19 33 3.2 9.7 0.00 0.00 0.00 8 1015.4
20260503191904 20 254 8.0 22.5 0.00 0.00 0.00 8 1015.5
20260503191404 20 253 4.8 11.3 0.00 0.00 0.00 8 1015.5
20260503190904 20 314 0.0 4.8 0.00 0.00 0.00 10 1015.5
20260503185904 21 349 0.0 4.8 0.00 0.00 0.00 6 1015.7
20260503185403 21 0 3.2 9.7 0.00 0.00 0.00 4 1015.7
20260503184904 21 150 0.0 0.0 0.00 0.00 0.00 6 1015.8
20260503184404 20 150 0.0 1.6 0.00 0.00 0.00 4 1015.9
20260503183905 20 142 1.6 8.0 0.00 0.00 0.00 9 1016.0
20260503182904 20 226 4.8 11.3 0.00 0.00 0.00 10 1016.0
20260503182404 20 231 3.2 8.0 0.00 0.00 0.00 9 1016.1
20260503181904 20 178 1.6 8.0 0.00 0.00 0.00 9 1016.2
20260503180904 19 290 0.0 1.6 0.00 0.00 0.00 10 1016.4
20260503180411 19 290 0.0 0.0 0.00 0.00 0.00 12 1016.5
20260503175904 18 290 0.0 0.0 0.00 0.00 0.00 11 1016.5
20260503174403 18 301 0.0 0.0 0.00 0.00 0.00 12 1016.8
20260503173904 17 303 0.0 0.0 0.00 0.00 0.00 14 1016.9
20260503173404 17 327 0.0 3.2 0.00 0.00 0.00 15 1017.0
20260503172404 17 14 0.0 0.0 0.00 0.00 0.00 18 1017.1
20260503171904 16 15 0.0 0.0 0.00 0.00 0.00 21 1017.1
20260503171404 16 15 0.0 0.0 0.00 0.00 0.00 24 1017.1
20260503170904 15 16 0.0 0.0 0.00 0.00 0.00 25 1017.3
20260503170404 15 15 0.0 0.0 0.00 0.00 0.00 25 1017.3
20260503150904 6 32 0.0 0.0 0.00 0.00 0.00 49 1018.9
20260503131404 -1 207 0.0 0.0 0.00 0.00 0.00 74 1019.7
20260503130904 -1 207 0.0 0.0 0.00 0.00 0.00 73 1019.6
20260503130411 -1 207 0.0 0.0 0.00 0.00 0.00 73 1019.5
20260503110404 -1 208 0.0 0.0 0.00 0.00 0.00 69 1019.2
20260503090404 0 208 0.0 0.0 0.00 0.00 0.00 63 1018.7
20260503081403 1 208 0.0 0.0 0.00 0.00 0.00 61 1018.8
20260503080904 1 208 0.0 0.0 0.00 0.00 0.00 61 1018.8
20260503072904 1 208 0.0 0.0 0.00 0.00 0.00 58 1018.8
20260503072404 1 208 0.0 0.0 0.00 0.00 0.00 57 1018.8
20260503071904 2 208 0.0 0.0 0.00 0.00 0.00 57 1018.8
20260503071404 2 208 0.0 0.0 0.00 0.00 0.00 57 1018.8
20260503070904 2 208 0.0 0.0 0.00 0.00 0.00 57 1018.8
20260503070404 2 208 0.0 0.0 0.00 0.00 0.00 57 1018.8
20260503054904 4 208 0.0 0.0 0.00 0.00 0.00 52 1018.7
20260503054404 4 208 0.0 0.0 0.00 0.00 0.00 52 1018.7
20260503053904 5 208 0.0 0.0 0.00 0.00 0.00 53 1018.6
20260503052903 5 208 0.0 0.0 0.00 0.00 0.00 53 1018.6
20260503052404 5 208 0.0 0.0 0.00 0.00 0.00 52 1018.6
20260503050403 6 208 0.0 0.0 0.00 0.00 0.00 51 1018.6
20260503045904 6 208 0.0 0.0 0.00 0.00 0.00 51 1018.5
20260503044404 7 208 0.0 0.0 0.00 0.00 0.00 48 1018.6
20260503043907 7 208 0.0 0.0 0.00 0.00 0.00 47 1018.6
20260503043404 7 208 0.0 0.0 0.00 0.00 0.00 47 1018.6
20260503042405 8 208 0.0 0.0 0.00 0.00 0.00 45 1018.5
20260503041904 8 208 0.0 0.0 0.00 0.00 0.00 43 1018.6
20260503041404 8 208 0.0 0.0 0.00 0.00 0.00 42 1018.6
20260503035904 9 208 0.0 0.0 0.00 0.00 0.00 40 1018.6
20260503035404 10 208 0.0 0.0 0.00 0.00 0.00 41 1018.5
20260503034905 10 208 0.0 0.0 0.00 0.00 0.00 37 1018.5
20260503033904 10 208 0.0 0.0 0.00 0.00 0.00 37 1018.3
20260503033404 11 208 0.0 0.0 0.00 0.00 0.00 36 1018.2
20260503032904 11 208 0.0 0.0 0.00 0.00 0.00 34 1018.1
20260503032404 11 208 0.0 0.0 0.00 0.00 0.00 28 1018.1
20260503031404 12 208 0.0 0.0 0.00 0.00 0.00 27 1018.0
20260503030904 12 208 1.6 4.8 0.00 0.00 0.00 25 1018.0
20260503030404 12 210 0.0 4.8 0.00 0.00 0.00 24 1017.8
20260503025904 12 216 0.0 1.6 0.00 0.00 0.00 24 1017.8
20260503023904 13 217 0.0 0.0 0.00 0.00 0.00 21 1017.6
20260503023404 14 217 0.0 4.8 0.00 0.00 0.00 21 1017.6
20260503022904 15 244 0.0 0.0 0.00 0.00 0.00 20 1017.5
20260503022404 15 244 0.0 0.0 0.00 0.00 0.00 21 1017.5
20260503021903 15 244 0.0 0.0 0.00 0.00 0.00 20 1017.3
20260503021404 15 244 0.0 0.0 0.00 0.00 0.00 20 1017.4
20260503020904 16 244 0.0 0.0 0.00 0.00 0.00 16 1017.3
20260503015904 16 244 0.0 0.0 0.00 0.00 0.00 14 1017.3
20260503015404 16 244 0.0 0.0 0.00 0.00 0.00 15 1017.2
20260503014904 16 245 0.0 3.2 0.00 0.00 0.00 14 1017.2
20260503014404 16 238 0.0 0.0 0.00 0.00 0.00 15 1017.2
20260503013904 17 238 0.0 0.0 0.00 0.00 0.00 13 1017.2
20260503013404 17 238 0.0 9.7 0.00 0.00 0.00 12 1017.2
20260503012904 17 226 1.6 9.7 0.00 0.00 0.00 12 1017.2
20260503011404 17 215 1.6 4.8 0.00 0.00 0.00 13 1017.2
20260503010904 17 216 8.0 14.5 0.00 0.00 0.00 13 1017.2
20260503010407 17 222 3.2 8.0 0.00 0.00 0.00 12 1017.2
20260503005904 17 229 4.8 11.3 0.00 0.00 0.00 11 1017.2
20260503005403 18 229 3.2 9.7 0.00 0.00 0.00 9 1017.2
20260503004904 18 220 0.0 1.6 0.00 0.00 0.00 9 1017.2
20260503004404 18 220 0.0 4.8 0.00 0.00 0.00 9 1017.3
20260503003904 18 216 3.2 9.7 0.00 0.00 0.00 8 1017.4
20260503003404 18 215 9.7 16.1 0.00 0.00 0.00 10 1017.3
20260503002404 18 212 8.0 22.5 0.00 0.00 0.00 8 1017.4
20260503001904 18 209 9.7 19.3 0.00 0.00 0.00 10 1017.3
20260503001404 19 208 9.7 16.1 0.00 0.00 0.00 7 1017.3
20260503000904 19 217 4.8 12.9 0.00 0.00 0.00 8 1017.3
20260503000404 19 215 8.0 16.1 0.00 0.00 0.00 9 1017.3
20260502235904 19 209 4.8 12.9 0.00 0.00 0.00 9 1017.4
20260502235404 19 219 11.3 22.5 0.00 0.00 0.00 9 1017.5
20260502234904 19 225 11.3 16.1 0.00 0.00 0.00 9 1017.5
20260502234404 19 220 6.4 12.9 0.00 0.00 0.00 7 1017.5
20260502233404 20 213 8.0 14.5 0.00 0.00 0.00 7 1017.5
20260502232911 20 232 4.8 11.3 0.00 0.00 0.00 6 1017.6
20260502231904 19 274 3.2 11.3 0.00 0.00 0.00 8 1017.7
20260502230904 19 230 6.4 14.5 0.00 0.00 0.00 6 1017.6
20260502225904 19 216 3.2 11.3 0.00 0.00 0.00 8 1017.6
20260502225404 19 215 1.6 9.7 0.00 0.00 0.00 8 1017.7
20260502224903 20 215 3.2 14.5 0.00 0.00 0.00 9 1017.8
20260502224404 20 209 1.6 11.3 0.00 0.00 0.00 5 1017.9
20260502223404 20 234 4.8 11.3 0.00 0.00 0.00 7 1018.0
20260502222905 20 223 1.6 19.3 0.00 0.00 0.00 8 1018.1
20260502222404 20 219 9.7 19.3 0.00 0.00 0.00 5 1018.2
20260502221404 20 227 3.2 12.9 0.00 0.00 0.00 8 1018.3
20260502220904 20 252 3.2 11.3 0.00 0.00 0.00 5 1018.4
20260502220404 20 253 1.6 8.0 0.00 0.00 0.00 5 1018.5
20260502215904 20 256 1.6 11.3 0.00 0.00 0.00 6 1018.5
20260502215419 20 241 3.2 9.7 0.00 0.00 0.00 8 1018.6
20260502214904 20 253 3.2 4.8 0.00 0.00 0.00 7 1018.7
20260502214404 20 231 1.6 9.7 0.00 0.00 0.00 8 1018.7
20260502213904 20 241 9.7 19.3 0.00 0.00 0.00 7 1018.8
20260502212904 20 228 11.3 19.3 0.00 0.00 0.00 9 1018.8
20260502212404 20 216 8.0 22.5 0.00 0.00 0.00 10 1018.9
20260502211904 20 219 4.8 12.9 0.00 0.00 0.00 8 1018.9
20260502211404 20 237 6.4 14.5 0.00 0.00 0.00 9 1018.9
20260502210904 20 217 4.8 16.1 0.00 0.00 0.00 9 1018.9
20260502210405 20 208 4.8 16.1 0.00 0.00 0.00 9 1019.0
20260502205904 20 216 11.3 19.3 0.00 0.00 0.00 9 1019.0
20260502205404 20 228 1.6 11.3 0.00 0.00 0.00 8 1019.1
20260502204404 20 227 8.0 19.3 0.00 0.00 0.00 11 1019.3
20260502203904 19 229 4.8 14.5 0.00 0.00 0.00 11 1019.3